owner,sensor,date,latitude,longitude,air_temperature,qcFlag 
TCOON,ioos:station:TCOON:518:1,2015-12-01T00:24:00Z,29.5150,-94.5133,21.6,1111122 
TCOON,ioos:station:TCOON:518:1,2015-12-01T01:24:00Z,29.5150,-94.5133,21.0,1111122 
TCOON,ioos:station:TCOON:518:1,2015-12-01T02:24:00Z,29.5150,-94.5133,20.0,1111122 
TCOON,ioos:station:TCOON:518:1,2015-12-01T03:12:00Z,29.5150,-94.5133,19.6,1111122 
TCOON,ioos:station:TCOON:518:1,2015-12-01T19:00:00Z,29.5150,-94.5133,18.1,1111122 
TCOON,ioos:station:TCOON:518:1,2015-12-01T20:24:00Z,29.5150,-94.5133,18.8,1111122 
TCOON,ioos:station:TCOON:518:1,2015-12-01T21:24:00Z,29.5150,-94.5133,19.2,1111122 
TCOON,ioos:station:TCOON:518:1,2015-12-02T19:24:00Z,29.5150,-94.5133,18.1,1111122 
TCOON,ioos:station:TCOON:518:1,2015-12-02T20:24:00Z,29.5150,-94.5133,18.6,1111122 
TCOON,ioos:station:TCOON:518:1,2015-12-02T21:24:00Z,29.5150,-94.5133,18.8,1111122 
TCOON,ioos:station:TCOON:518:1,2015-12-02T22:24:00Z,29.5150,-94.5133,18.5,1111122 
TCOON,ioos:station:TCOON:518:1,2015-12-03T20:42:00Z,29.5150,-94.5133,18.2,1111122 
TCOON,ioos:station:TCOON:518:1,2015-12-03T21:24:00Z,29.5150,-94.5133,18.2,1111122 
TCOON,ioos:station:TCOON:518:1,2015-12-03T22:24:00Z,29.5150,-94.5133,19.1,1111122 
TCOON,ioos:station:TCOON:518:1,2015-12-03T23:24:00Z,29.5150,-94.5133,18.7,1111122 
TCOON,ioos:station:TCOON:518:1,2015-12-04T00:24:00Z,29.5150,-94.5133,17.9,1111122 
TCOON,ioos:station:TCOON:518:1,2015-12-04T01:18:00Z,29.5150,-94.5133,17.0,1111122 
TCOON,ioos:station:TCOON:518:1,2015-12-05T00:42:00Z,29.5150,-94.5133,18.1,1111122 
TCOON,ioos:station:TCOON:518:1,2015-12-06T00:42:00Z,29.5150,-94.5133,19.0,1111122 
TCOON,ioos:station:TCOON:518:1,2015-12-06T19:42:00Z,29.5150,-94.5133,22.1,1111122 
TCOON,ioos:station:TCOON:518:1,2015-12-06T20:12:00Z,29.5150,-94.5133,22.4,1111122 
TCOON,ioos:station:TCOON:518:1,2015-12-06T21:12:00Z,29.5150,-94.5133,23.3,1111122 
TCOON,ioos:station:TCOON:518:1,2015-12-06T22:12:00Z,29.5150,-94.5133,24.0,1111122 
TCOON,ioos:station:TCOON:518:1,2015-12-06T23:12:00Z,29.5150,-94.5133,21.1,1111122 
TCOON,ioos:station:TCOON:518:1,2015-12-07T00:12:00Z,29.5150,-94.5133,20.9,1111122 
TCOON,ioos:station:TCOON:518:1,2015-12-07T01:12:00Z,29.5150,-94.5133,19.5,1111122 
TCOON,ioos:station:TCOON:518:1,2015-12-07T21:12:00Z,29.5150,-94.5133,21.7,1111122 
TCOON,ioos:station:TCOON:518:1,2015-12-07T22:12:00Z,29.5150,-94.5133,21.8,1111122 
TCOON,ioos:station:TCOON:518:1,2015-12-07T23:12:00Z,29.5150,-94.5133,20.8,1111122 
TCOON,ioos:station:TCOON:518:1,2015-12-08T00:12:00Z,29.5150,-94.5133,20.4,1111122 
TCOON,ioos:station:TCOON:518:1,2015-12-08T19:12:00Z,29.5150,-94.5133,22.5,1111122 
TCOON,ioos:station:TCOON:518:1,2015-12-08T20:18:00Z,29.5150,-94.5133,22.3,1111122 
TCOON,ioos:station:TCOON:518:1,2015-12-08T21:12:00Z,29.5150,-94.5133,22.4,1111122 
TCOON,ioos:station:TCOON:518:1,2015-12-08T22:12:00Z,29.5150,-94.5133,22.7,1111122 
TCOON,ioos:station:TCOON:518:1,2015-12-08T23:12:00Z,29.5150,-94.5133,22.4,1111122 
TCOON,ioos:station:TCOON:518:1,2015-12-09T00:12:00Z,29.5150,-94.5133,22.0,1111122 
TCOON,ioos:station:TCOON:518:1,2015-12-09T01:12:00Z,29.5150,-94.5133,22.0,1111122 
TCOON,ioos:station:TCOON:518:1,2015-12-09T19:48:00Z,29.5150,-94.5133,26.4,1111122 
TCOON,ioos:station:TCOON:518:1,2015-12-09T20:12:00Z,29.5150,-94.5133,26.3,1111122 
TCOON,ioos:station:TCOON:518:1,2015-12-09T21:12:00Z,29.5150,-94.5133,27.1,1111122 
TCOON,ioos:station:TCOON:518:1,2015-12-09T22:12:00Z,29.5150,-94.5133,25.4,1111122 
TCOON,ioos:station:TCOON:518:1,2015-12-09T23:12:00Z,29.5150,-94.5133,23.0,1111122 
TCOON,ioos:station:TCOON:518:1,2015-12-10T00:12:00Z,29.5150,-94.5133,22.2,1111122 
TCOON,ioos:station:TCOON:518:1,2015-12-10T15:48:00Z,29.5150,-94.5133,25.7,1111122 
TCOON,ioos:station:TCOON:518:1,2015-12-10T16:12:00Z,29.5150,-94.5133,25.9,1111122 
TCOON,ioos:station:TCOON:518:1,2015-12-10T17:12:00Z,29.5150,-94.5133,25.9,1111122 
TCOON,ioos:station:TCOON:518:1,2015-12-10T18:12:00Z,29.5150,-94.5133,26.1,1111122 
TCOON,ioos:station:TCOON:518:1,2015-12-10T19:12:00Z,29.5150,-94.5133,26.0,1111122 
TCOON,ioos:station:TCOON:518:1,2015-12-10T20:12:00Z,29.5150,-94.5133,25.8,1111122 
TCOON,ioos:station:TCOON:518:1,2015-12-10T21:12:00Z,29.5150,-94.5133,25.5,1111122 
TCOON,ioos:station:TCOON:518:1,2015-12-10T22:12:00Z,29.5150,-94.5133,25.2,1111122 
TCOON,ioos:station:TCOON:518:1,2015-12-10T23:12:00Z,29.5150,-94.5133,23.9,1111122 
TCOON,ioos:station:TCOON:518:1,2015-12-11T00:12:00Z,29.5150,-94.5133,23.6,1111122 
TCOON,ioos:station:TCOON:518:1,2015-12-11T01:12:00Z,29.5150,-94.5133,24.2,1111122 
TCOON,ioos:station:TCOON:518:1,2015-12-11T02:12:00Z,29.5150,-94.5133,24.2,1111122 
TCOON,ioos:station:TCOON:518:1,2015-12-11T03:12:00Z,29.5150,-94.5133,24.5,1111122 
TCOON,ioos:station:TCOON:518:1,2015-12-11T04:12:00Z,29.5150,-94.5133,24.5,1111122 
TCOON,ioos:station:TCOON:518:1,2015-12-11T05:12:00Z,29.5150,-94.5133,24.4,1111122 
TCOON,ioos:station:TCOON:518:1,2015-12-11T06:12:00Z,29.5150,-94.5133,24.3,1111122 
TCOON,ioos:station:TCOON:518:1,2015-12-11T07:12:00Z,29.5150,-94.5133,24.3,1111122 
TCOON,ioos:station:TCOON:518:1,2015-12-11T08:12:00Z,29.5150,-94.5133,24.5,1111122 
TCOON,ioos:station:TCOON:518:1,2015-12-11T09:24:00Z,29.5150,-94.5133,24.0,1111122 
TCOON,ioos:station:TCOON:518:1,2015-12-11T10:12:00Z,29.5150,-94.5133,24.3,1111122 
TCOON,ioos:station:TCOON:518:1,2015-12-11T11:12:00Z,29.5150,-94.5133,23.9,1111122 
TCOON,ioos:station:TCOON:518:1,2015-12-11T12:12:00Z,29.5150,-94.5133,24.0,1111122 
TCOON,ioos:station:TCOON:518:1,2015-12-11T13:12:00Z,29.5150,-94.5133,24.0,1111122 
TCOON,ioos:station:TCOON:518:1,2015-12-11T14:12:00Z,29.5150,-94.5133,24.8,1111122 
TCOON,ioos:station:TCOON:518:1,2015-12-11T15:12:00Z,29.5150,-94.5133,26.4,1111122 
TCOON,ioos:station:TCOON:518:1,2015-12-11T16:18:00Z,29.5150,-94.5133,26.5,1111122 
TCOON,ioos:station:TCOON:518:1,2015-12-11T17:12:00Z,29.5150,-94.5133,26.9,1111122 
TCOON,ioos:station:TCOON:518:1,2015-12-11T18:18:00Z,29.5150,-94.5133,27.2,1111122 
TCOON,ioos:station:TCOON:518:1,2015-12-11T19:12:00Z,29.5150,-94.5133,27.2,1111122 
TCOON,ioos:station:TCOON:518:1,2015-12-11T20:12:00Z,29.5150,-94.5133,27.2,1111122 
TCOON,ioos:station:TCOON:518:1,2015-12-11T21:12:00Z,29.5150,-94.5133,26.5,1111122 
TCOON,ioos:station:TCOON:518:1,2015-12-11T22:12:00Z,29.5150,-94.5133,26.0,1111122 
TCOON,ioos:station:TCOON:518:1,2015-12-11T23:12:00Z,29.5150,-94.5133,25.8,1111122 
TCOON,ioos:station:TCOON:518:1,2015-12-12T00:12:00Z,29.5150,-94.5133,25.5,1111122 
TCOON,ioos:station:TCOON:518:1,2015-12-12T01:18:00Z,29.5150,-94.5133,25.3,1111122 
TCOON,ioos:station:TCOON:518:1,2015-12-12T02:12:00Z,29.5150,-94.5133,25.3,1111122 
TCOON,ioos:station:TCOON:518:1,2015-12-12T03:12:00Z,29.5150,-94.5133,25.1,1111122 
TCOON,ioos:station:TCOON:518:1,2015-12-12T04:18:00Z,29.5150,-94.5133,25.3,1111122 
TCOON,ioos:station:TCOON:518:1,2015-12-12T05:12:00Z,29.5150,-94.5133,25.4,1111122 
TCOON,ioos:station:TCOON:518:1,2015-12-12T06:18:00Z,29.5150,-94.5133,25.2,1111122 
TCOON,ioos:station:TCOON:518:1,2015-12-12T07:12:00Z,29.5150,-94.5133,25.1,1111122 
TCOON,ioos:station:TCOON:518:1,2015-12-12T08:12:00Z,29.5150,-94.5133,25.3,1111122 
TCOON,ioos:station:TCOON:518:1,2015-12-12T09:12:00Z,29.5150,-94.5133,25.3,1111122 
TCOON,ioos:station:TCOON:518:1,2015-12-12T10:12:00Z,29.5150,-94.5133,25.4,1111122 
TCOON,ioos:station:TCOON:518:1,2015-12-12T11:12:00Z,29.5150,-94.5133,25.2,1111122 
TCOON,ioos:station:TCOON:518:1,2015-12-12T12:12:00Z,29.5150,-94.5133,25.2,1111122 
TCOON,ioos:station:TCOON:518:1,2015-12-12T13:12:00Z,29.5150,-94.5133,25.4,1111122 
TCOON,ioos:station:TCOON:518:1,2015-12-12T14:12:00Z,29.5150,-94.5133,25.7,1111122 
TCOON,ioos:station:TCOON:518:1,2015-12-12T15:12:00Z,29.5150,-94.5133,26.4,1111122 
TCOON,ioos:station:TCOON:518:1,2015-12-12T16:12:00Z,29.5150,-94.5133,26.2,1111122 
TCOON,ioos:station:TCOON:518:1,2015-12-12T17:12:00Z,29.5150,-94.5133,27.0,1111122 
TCOON,ioos:station:TCOON:518:1,2015-12-12T18:12:00Z,29.5150,-94.5133,26.8,1111122 
TCOON,ioos:station:TCOON:518:1,2015-12-12T19:12:00Z,29.5150,-94.5133,27.1,1111122 
TCOON,ioos:station:TCOON:518:1,2015-12-12T20:12:00Z,29.5150,-94.5133,26.6,1111122 
TCOON,ioos:station:TCOON:518:1,2015-12-12T21:12:00Z,29.5150,-94.5133,26.5,1111122 
TCOON,ioos:station:TCOON:518:1,2015-12-12T22:12:00Z,29.5150,-94.5133,26.4,1111122 
TCOON,ioos:station:TCOON:518:1,2015-12-12T23:12:00Z,29.5150,-94.5133,26.3,1111122 
TCOON,ioos:station:TCOON:518:1,2015-12-13T00:12:00Z,29.5150,-94.5133,26.4,1111122 
TCOON,ioos:station:TCOON:518:1,2015-12-13T01:12:00Z,29.5150,-94.5133,26.4,1111122 
TCOON,ioos:station:TCOON:518:1,2015-12-13T02:12:00Z,29.5150,-94.5133,26.4,1111122 
TCOON,ioos:station:TCOON:518:1,2015-12-13T03:12:00Z,29.5150,-94.5133,26.4,1111122 
TCOON,ioos:station:TCOON:518:1,2015-12-13T04:12:00Z,29.5150,-94.5133,26.3,1111122 
TCOON,ioos:station:TCOON:518:1,2015-12-13T05:12:00Z,29.5150,-94.5133,26.4,1111122 
TCOON,ioos:station:TCOON:518:1,2015-12-13T06:12:00Z,29.5150,-94.5133,26.3,1111122 
TCOON,ioos:station:TCOON:518:1,2015-12-13T07:12:00Z,29.5150,-94.5133,26.3,1111122 
TCOON,ioos:station:TCOON:518:1,2015-12-13T08:12:00Z,29.5150,-94.5133,26.3,1111122 
TCOON,ioos:station:TCOON:518:1,2015-12-13T09:12:00Z,29.5150,-94.5133,26.4,1111122 
TCOON,ioos:station:TCOON:518:1,2015-12-13T10:12:00Z,29.5150,-94.5133,26.4,1111122 
TCOON,ioos:station:TCOON:518:1,2015-12-13T11:12:00Z,29.5150,-94.5133,26.3,1111122 
TCOON,ioos:station:TCOON:518:1,2015-12-13T12:12:00Z,29.5150,-94.5133,26.6,1111122 
TCOON,ioos:station:TCOON:518:1,2015-12-13T13:12:00Z,29.5150,-94.5133,26.9,1111122 
TCOON,ioos:station:TCOON:518:1,2015-12-13T14:12:00Z,29.5150,-94.5133,26.8,1111122 
TCOON,ioos:station:TCOON:518:1,2015-12-13T15:12:00Z,29.5150,-94.5133,26.7,1111122 
TCOON,ioos:station:TCOON:518:1,2015-12-13T16:12:00Z,29.5150,-94.5133,18.2,1111122 
TCOON,ioos:station:TCOON:518:1,2015-12-13T17:12:00Z,29.5150,-94.5133,18.0,1111122 
TCOON,ioos:station:TCOON:518:1,2015-12-13T18:12:00Z,29.5150,-94.5133,16.7,1111122 
TCOON,ioos:station:TCOON:518:1,2015-12-13T19:12:00Z,29.5150,-94.5133,16.1,1111122 
TCOON,ioos:station:TCOON:518:1,2015-12-13T20:12:00Z,29.5150,-94.5133,15.7,1111122 
TCOON,ioos:station:TCOON:518:1,2015-12-13T21:12:00Z,29.5150,-94.5133,15.4,1111122 
TCOON,ioos:station:TCOON:518:1,2015-12-13T22:12:00Z,29.5150,-94.5133,15.3,1111122 
TCOON,ioos:station:TCOON:518:1,2015-12-13T23:12:00Z,29.5150,-94.5133,16.2,1111122 
TCOON,ioos:station:TCOON:518:1,2015-12-14T00:12:00Z,29.5150,-94.5133,17.4,1111122 
TCOON,ioos:station:TCOON:518:1,2015-12-14T01:12:00Z,29.5150,-94.5133,17.4,1111122 
TCOON,ioos:station:TCOON:518:1,2015-12-14T02:12:00Z,29.5150,-94.5133,17.4,1111122 
TCOON,ioos:station:TCOON:518:1,2015-12-14T03:12:00Z,29.5150,-94.5133,17.4,1111122 
TCOON,ioos:station:TCOON:518:1,2015-12-14T04:12:00Z,29.5150,-94.5133,17.4,1111122 
TCOON,ioos:station:TCOON:518:1,2015-12-14T05:12:00Z,29.5150,-94.5133,17.8,1111122 
TCOON,ioos:station:TCOON:518:1,2015-12-14T06:18:00Z,29.5150,-94.5133,18.5,1111122 
TCOON,ioos:station:TCOON:518:1,2015-12-14T07:12:00Z,29.5150,-94.5133,18.9,1111122 
TCOON,ioos:station:TCOON:518:1,2015-12-14T08:12:00Z,29.5150,-94.5133,19.9,1111122 
TCOON,ioos:station:TCOON:518:1,2015-12-14T09:18:00Z,29.5150,-94.5133,20.2,1111122 
TCOON,ioos:station:TCOON:518:1,2015-12-14T10:12:00Z,29.5150,-94.5133,20.6,1111122 
TCOON,ioos:station:TCOON:518:1,2015-12-14T11:12:00Z,29.5150,-94.5133,20.4,1111122 
TCOON,ioos:station:TCOON:518:1,2015-12-14T12:12:00Z,29.5150,-94.5133,19.2,1111122 
TCOON,ioos:station:TCOON:518:1,2015-12-14T13:12:00Z,29.5150,-94.5133,19.6,1111122 
TCOON,ioos:station:TCOON:518:1,2015-12-14T14:24:00Z,29.5150,-94.5133,21.1,1111122 
TCOON,ioos:station:TCOON:518:1,2015-12-14T15:12:00Z,29.5150,-94.5133,22.4,1111122 
TCOON,ioos:station:TCOON:518:1,2015-12-14T16:12:00Z,29.5150,-94.5133,22.6,1111122 
TCOON,ioos:station:TCOON:518:1,2015-12-14T17:12:00Z,29.5150,-94.5133,23.5,1111122 
TCOON,ioos:station:TCOON:518:1,2015-12-14T18:12:00Z,29.5150,-94.5133,24.2,1111122 
TCOON,ioos:station:TCOON:518:1,2015-12-14T19:12:00Z,29.5150,-94.5133,25.4,1111122 
TCOON,ioos:station:TCOON:518:1,2015-12-14T20:12:00Z,29.5150,-94.5133,24.8,1111122 
TCOON,ioos:station:TCOON:518:1,2015-12-14T21:12:00Z,29.5150,-94.5133,25.0,1111122 
TCOON,ioos:station:TCOON:518:1,2015-12-14T22:12:00Z,29.5150,-94.5133,24.8,1111122 
TCOON,ioos:station:TCOON:518:1,2015-12-14T23:12:00Z,29.5150,-94.5133,23.2,1111122 
TCOON,ioos:station:TCOON:518:1,2015-12-15T00:12:00Z,29.5150,-94.5133,22.6,1111122 
TCOON,ioos:station:TCOON:518:1,2015-12-15T01:12:00Z,29.5150,-94.5133,22.5,1111122 
TCOON,ioos:station:TCOON:518:1,2015-12-15T02:12:00Z,29.5150,-94.5133,22.1,1111122 
TCOON,ioos:station:TCOON:518:1,2015-12-15T03:12:00Z,29.5150,-94.5133,22.2,1111122 
TCOON,ioos:station:TCOON:518:1,2015-12-15T04:18:00Z,29.5150,-94.5133,23.2,1111122 
TCOON,ioos:station:TCOON:518:1,2015-12-15T05:12:00Z,29.5150,-94.5133,23.3,1111122 
TCOON,ioos:station:TCOON:518:1,2015-12-15T06:12:00Z,29.5150,-94.5133,23.0,1111122 
TCOON,ioos:station:TCOON:518:1,2015-12-15T07:12:00Z,29.5150,-94.5133,22.9,1111122 
TCOON,ioos:station:TCOON:518:1,2015-12-15T08:12:00Z,29.5150,-94.5133,23.3,1111122 
TCOON,ioos:station:TCOON:518:1,2015-12-15T09:18:00Z,29.5150,-94.5133,23.2,1111122 
TCOON,ioos:station:TCOON:518:1,2015-12-15T10:18:00Z,29.5150,-94.5133,22.9,1111122 
TCOON,ioos:station:TCOON:518:1,2015-12-15T11:18:00Z,29.5150,-94.5133,23.6,1111122 
TCOON,ioos:station:TCOON:518:1,2015-12-15T12:12:00Z,29.5150,-94.5133,23.4,1111122 
TCOON,ioos:station:TCOON:518:1,2015-12-15T13:12:00Z,29.5150,-94.5133,23.6,1111122 
TCOON,ioos:station:TCOON:518:1,2015-12-15T14:24:00Z,29.5150,-94.5133,24.7,1111122 
TCOON,ioos:station:TCOON:518:1,2015-12-15T15:18:00Z,29.5150,-94.5133,25.6,1111122 
TCOON,ioos:station:TCOON:518:1,2015-12-15T16:12:00Z,29.5150,-94.5133,25.3,1111122 
TCOON,ioos:station:TCOON:518:1,2015-12-15T17:12:00Z,29.5150,-94.5133,26.0,1111122 
TCOON,ioos:station:TCOON:518:1,2015-12-15T18:12:00Z,29.5150,-94.5133,26.1,1111122 
TCOON,ioos:station:TCOON:518:1,2015-12-15T19:12:00Z,29.5150,-94.5133,25.8,1111122 
TCOON,ioos:station:TCOON:518:1,2015-12-15T20:12:00Z,29.5150,-94.5133,25.7,1111122 
TCOON,ioos:station:TCOON:518:1,2015-12-15T21:12:00Z,29.5150,-94.5133,25.3,1111122 
TCOON,ioos:station:TCOON:518:1,2015-12-15T22:12:00Z,29.5150,-94.5133,25.0,1111122 
TCOON,ioos:station:TCOON:518:1,2015-12-15T23:12:00Z,29.5150,-94.5133,24.9,1111122 
TCOON,ioos:station:TCOON:518:1,2015-12-16T00:12:00Z,29.5150,-94.5133,24.8,1111122 
TCOON,ioos:station:TCOON:518:1,2015-12-16T01:12:00Z,29.5150,-94.5133,24.8,1111122 
TCOON,ioos:station:TCOON:518:1,2015-12-16T02:12:00Z,29.5150,-94.5133,24.8,1111122 
TCOON,ioos:station:TCOON:518:1,2015-12-16T03:18:00Z,29.5150,-94.5133,24.9,1111122 
TCOON,ioos:station:TCOON:518:1,2015-12-16T04:12:00Z,29.5150,-94.5133,24.9,1111122 
TCOON,ioos:station:TCOON:518:1,2015-12-16T05:12:00Z,29.5150,-94.5133,25.2,1111122 
TCOON,ioos:station:TCOON:518:1,2015-12-16T06:18:00Z,29.5150,-94.5133,25.4,1111122 
TCOON,ioos:station:TCOON:518:1,2015-12-16T07:24:00Z,29.5150,-94.5133,25.1,1111122 
TCOON,ioos:station:TCOON:518:1,2015-12-16T08:12:00Z,29.5150,-94.5133,25.0,1111122 
TCOON,ioos:station:TCOON:518:1,2015-12-16T09:24:00Z,29.5150,-94.5133,25.3,1111122 
TCOON,ioos:station:TCOON:518:1,2015-12-16T10:12:00Z,29.5150,-94.5133,25.7,1111122 
TCOON,ioos:station:TCOON:518:1,2015-12-16T11:12:00Z,29.5150,-94.5133,25.3,1111122 
TCOON,ioos:station:TCOON:518:1,2015-12-16T12:12:00Z,29.5150,-94.5133,24.8,1111122 
TCOON,ioos:station:TCOON:518:1,2015-12-16T13:12:00Z,29.5150,-94.5133,25.4,1111122 
TCOON,ioos:station:TCOON:518:1,2015-12-16T14:12:00Z,29.5150,-94.5133,23.5,1111122 
TCOON,ioos:station:TCOON:518:1,2015-12-16T15:12:00Z,29.5150,-94.5133,22.7,1111122 
TCOON,ioos:station:TCOON:518:1,2015-12-16T16:12:00Z,29.5150,-94.5133,23.5,1111122 
TCOON,ioos:station:TCOON:518:1,2015-12-16T17:12:00Z,29.5150,-94.5133,23.0,1111122 
TCOON,ioos:station:TCOON:518:1,2015-12-16T18:12:00Z,29.5150,-94.5133,23.1,1111122 
TCOON,ioos:station:TCOON:518:1,2015-12-16T19:12:00Z,29.5150,-94.5133,23.0,1111122 
TCOON,ioos:station:TCOON:518:1,2015-12-16T20:12:00Z,29.5150,-94.5133,23.1,1111122 
TCOON,ioos:station:TCOON:518:1,2015-12-16T21:12:00Z,29.5150,-94.5133,23.5,1111122 
TCOON,ioos:station:TCOON:518:1,2015-12-16T22:12:00Z,29.5150,-94.5133,23.0,1111122 
TCOON,ioos:station:TCOON:518:1,2015-12-16T23:12:00Z,29.5150,-94.5133,21.7,1111122 
TCOON,ioos:station:TCOON:518:1,2015-12-17T00:12:00Z,29.5150,-94.5133,21.0,1111122 
TCOON,ioos:station:TCOON:518:1,2015-12-17T01:12:00Z,29.5150,-94.5133,20.5,1111122 
TCOON,ioos:station:TCOON:518:1,2015-12-17T02:12:00Z,29.5150,-94.5133,19.7,1111122 
TCOON,ioos:station:TCOON:518:1,2015-12-17T03:12:00Z,29.5150,-94.5133,19.7,1111122 
TCOON,ioos:station:TCOON:518:1,2015-12-17T04:12:00Z,29.5150,-94.5133,19.0,1111122 
TCOON,ioos:station:TCOON:518:1,2015-12-17T05:12:00Z,29.5150,-94.5133,18.1,1111122 
TCOON,ioos:station:TCOON:518:1,2015-12-17T06:12:00Z,29.5150,-94.5133,17.5,1111122 
TCOON,ioos:station:TCOON:518:1,2015-12-17T07:12:00Z,29.5150,-94.5133,16.0,1111122 
TCOON,ioos:station:TCOON:518:1,2015-12-17T08:12:00Z,29.5150,-94.5133,15.8,1111122 
TCOON,ioos:station:TCOON:518:1,2015-12-17T09:18:00Z,29.5150,-94.5133,14.7,1111122 
TCOON,ioos:station:TCOON:518:1,2015-12-17T10:12:00Z,29.5150,-94.5133,14.4,1111122 
TCOON,ioos:station:TCOON:518:1,2015-12-17T11:12:00Z,29.5150,-94.5133,14.0,1111122 
TCOON,ioos:station:TCOON:518:1,2015-12-17T12:12:00Z,29.5150,-94.5133,12.9,1111122 
TCOON,ioos:station:TCOON:518:1,2015-12-17T13:12:00Z,29.5150,-94.5133,12.5,1111122 
TCOON,ioos:station:TCOON:518:1,2015-12-17T14:12:00Z,29.5150,-94.5133,13.1,1111122 
TCOON,ioos:station:TCOON:518:1,2015-12-17T15:12:00Z,29.5150,-94.5133,14.4,1111122 
TCOON,ioos:station:TCOON:518:1,2015-12-17T16:18:00Z,29.5150,-94.5133,15.2,1111122 
TCOON,ioos:station:TCOON:518:1,2015-12-17T17:12:00Z,29.5150,-94.5133,16.9,1111122 
TCOON,ioos:station:TCOON:518:1,2015-12-17T18:12:00Z,29.5150,-94.5133,18.3,1111122 
TCOON,ioos:station:TCOON:518:1,2015-12-17T19:12:00Z,29.5150,-94.5133,19.0,1111122 
TCOON,ioos:station:TCOON:518:1,2015-12-17T20:12:00Z,29.5150,-94.5133,19.7,1111122 
TCOON,ioos:station:TCOON:518:1,2015-12-17T21:12:00Z,29.5150,-94.5133,20.3,1111122 
TCOON,ioos:station:TCOON:518:1,2015-12-17T22:12:00Z,29.5150,-94.5133,20.6,1111122 
TCOON,ioos:station:TCOON:518:1,2015-12-17T23:12:00Z,29.5150,-94.5133,19.2,1111122 
TCOON,ioos:station:TCOON:518:1,2015-12-18T00:12:00Z,29.5150,-94.5133,18.3,1111122 
TCOON,ioos:station:TCOON:518:1,2015-12-18T01:12:00Z,29.5150,-94.5133,18.6,1111122 
TCOON,ioos:station:TCOON:518:1,2015-12-18T02:12:00Z,29.5150,-94.5133,19.7,1111122 
TCOON,ioos:station:TCOON:518:1,2015-12-18T03:12:00Z,29.5150,-94.5133,18.5,1111122 
TCOON,ioos:station:TCOON:518:1,2015-12-18T04:12:00Z,29.5150,-94.5133,17.8,1111122 
TCOON,ioos:station:TCOON:518:1,2015-12-18T05:12:00Z,29.5150,-94.5133,17.6,1111122 
TCOON,ioos:station:TCOON:518:1,2015-12-18T06:12:00Z,29.5150,-94.5133,19.0,1111122 
TCOON,ioos:station:TCOON:518:1,2015-12-18T07:12:00Z,29.5150,-94.5133,18.8,1111122 
TCOON,ioos:station:TCOON:518:1,2015-12-18T08:12:00Z,29.5150,-94.5133,16.7,1111122 
TCOON,ioos:station:TCOON:518:1,2015-12-18T09:18:00Z,29.5150,-94.5133,15.2,1111122 
TCOON,ioos:station:TCOON:518:1,2015-12-18T10:12:00Z,29.5150,-94.5133,14.7,1111122 
TCOON,ioos:station:TCOON:518:1,2015-12-18T11:12:00Z,29.5150,-94.5133,13.3,1111122 
TCOON,ioos:station:TCOON:518:1,2015-12-18T12:12:00Z,29.5150,-94.5133,12.2,1111122 
TCOON,ioos:station:TCOON:518:1,2015-12-18T13:12:00Z,29.5150,-94.5133,11.0,1111122 
TCOON,ioos:station:TCOON:518:1,2015-12-18T14:12:00Z,29.5150,-94.5133,11.5,1111122 
TCOON,ioos:station:TCOON:518:1,2015-12-18T15:12:00Z,29.5150,-94.5133,12.7,1111122 
TCOON,ioos:station:TCOON:518:1,2015-12-18T16:12:00Z,29.5150,-94.5133,14.4,1111122 
TCOON,ioos:station:TCOON:518:1,2015-12-18T17:12:00Z,29.5150,-94.5133,16.0,1111122 
TCOON,ioos:station:TCOON:518:1,2015-12-18T18:12:00Z,29.5150,-94.5133,17.6,1111122 
TCOON,ioos:station:TCOON:518:1,2015-12-18T19:12:00Z,29.5150,-94.5133,18.3,1111122 
TCOON,ioos:station:TCOON:518:1,2015-12-18T20:12:00Z,29.5150,-94.5133,18.7,1111122 
TCOON,ioos:station:TCOON:518:1,2015-12-18T21:12:00Z,29.5150,-94.5133,19.1,1111122 
TCOON,ioos:station:TCOON:518:1,2015-12-18T22:12:00Z,29.5150,-94.5133,19.3,1111122 
TCOON,ioos:station:TCOON:518:1,2015-12-18T23:12:00Z,29.5150,-94.5133,19.3,1111122 
TCOON,ioos:station:TCOON:518:1,2015-12-19T00:12:00Z,29.5150,-94.5133,18.6,1111122 
TCOON,ioos:station:TCOON:518:1,2015-12-19T01:12:00Z,29.5150,-94.5133,18.1,1111122 
TCOON,ioos:station:TCOON:518:1,2015-12-19T02:12:00Z,29.5150,-94.5133,17.8,1111122 
TCOON,ioos:station:TCOON:518:1,2015-12-19T03:12:00Z,29.5150,-94.5133,17.2,1111122 
TCOON,ioos:station:TCOON:518:1,2015-12-19T04:12:00Z,29.5150,-94.5133,16.3,1111122 
TCOON,ioos:station:TCOON:518:1,2015-12-19T05:12:00Z,29.5150,-94.5133,15.6,1111122 
TCOON,ioos:station:TCOON:518:1,2015-12-19T06:12:00Z,29.5150,-94.5133,15.1,1111122 
TCOON,ioos:station:TCOON:518:1,2015-12-19T07:12:00Z,29.5150,-94.5133,15.1,1111122 
TCOON,ioos:station:TCOON:518:1,2015-12-19T08:12:00Z,29.5150,-94.5133,14.5,1111122 
TCOON,ioos:station:TCOON:518:1,2015-12-19T09:18:00Z,29.5150,-94.5133,14.0,1111122 
TCOON,ioos:station:TCOON:518:1,2015-12-19T10:12:00Z,29.5150,-94.5133,14.0,1111122 
TCOON,ioos:station:TCOON:518:1,2015-12-19T11:12:00Z,29.5150,-94.5133,14.1,1111122 
TCOON,ioos:station:TCOON:518:1,2015-12-19T12:12:00Z,29.5150,-94.5133,14.1,1111122 
TCOON,ioos:station:TCOON:518:1,2015-12-19T13:12:00Z,29.5150,-94.5133,14.3,1111122 
TCOON,ioos:station:TCOON:518:1,2015-12-19T14:12:00Z,29.5150,-94.5133,16.0,1111122 
TCOON,ioos:station:TCOON:518:1,2015-12-19T15:12:00Z,29.5150,-94.5133,18.9,1111122 
TCOON,ioos:station:TCOON:518:1,2015-12-19T16:12:00Z,29.5150,-94.5133,19.1,1111122 
TCOON,ioos:station:TCOON:518:1,2015-12-19T17:12:00Z,29.5150,-94.5133,19.1,1111122 
TCOON,ioos:station:TCOON:518:1,2015-12-19T18:12:00Z,29.5150,-94.5133,19.1,1111122 
TCOON,ioos:station:TCOON:518:1,2015-12-19T19:12:00Z,29.5150,-94.5133,19.1,1111122 
TCOON,ioos:station:TCOON:518:1,2015-12-19T20:12:00Z,29.5150,-94.5133,18.9,1111122 
TCOON,ioos:station:TCOON:518:1,2015-12-19T21:12:00Z,29.5150,-94.5133,19.0,1111122 
TCOON,ioos:station:TCOON:518:1,2015-12-19T22:12:00Z,29.5150,-94.5133,18.9,1111122 
TCOON,ioos:station:TCOON:518:1,2015-12-19T23:12:00Z,29.5150,-94.5133,18.9,1111122 
TCOON,ioos:station:TCOON:518:1,2015-12-20T00:12:00Z,29.5150,-94.5133,18.9,1111122 
TCOON,ioos:station:TCOON:518:1,2015-12-20T01:12:00Z,29.5150,-94.5133,19.1,1111122 
TCOON,ioos:station:TCOON:518:1,2015-12-20T02:12:00Z,29.5150,-94.5133,19.8,1111122 
TCOON,ioos:station:TCOON:518:1,2015-12-20T03:12:00Z,29.5150,-94.5133,20.3,1111122 
TCOON,ioos:station:TCOON:518:1,2015-12-20T04:12:00Z,29.5150,-94.5133,20.6,1111122 
TCOON,ioos:station:TCOON:518:1,2015-12-20T05:12:00Z,29.5150,-94.5133,20.7,1111122 
TCOON,ioos:station:TCOON:518:1,2015-12-20T06:18:00Z,29.5150,-94.5133,20.9,1111122 
TCOON,ioos:station:TCOON:518:1,2015-12-20T07:30:00Z,29.5150,-94.5133,21.1,1111122 
TCOON,ioos:station:TCOON:518:1,2015-12-20T08:24:00Z,29.5150,-94.5133,21.3,1111122 
TCOON,ioos:station:TCOON:518:1,2015-12-20T09:24:00Z,29.5150,-94.5133,21.3,1111122 
TCOON,ioos:station:TCOON:518:1,2015-12-20T10:54:00Z,29.5150,-94.5133,21.2,1111122 
TCOON,ioos:station:TCOON:518:1,2015-12-20T11:12:00Z,29.5150,-94.5133,21.4,1111122 
TCOON,ioos:station:TCOON:518:1,2015-12-20T12:12:00Z,29.5150,-94.5133,21.6,1111122 
TCOON,ioos:station:TCOON:518:1,2015-12-20T13:12:00Z,29.5150,-94.5133,21.3,1111122 
TCOON,ioos:station:TCOON:518:1,2015-12-20T14:30:00Z,29.5150,-94.5133,21.3,1111122 
TCOON,ioos:station:TCOON:518:1,2015-12-20T15:12:00Z,29.5150,-94.5133,21.9,1111122 
TCOON,ioos:station:TCOON:518:1,2015-12-20T16:12:00Z,29.5150,-94.5133,22.1,1111122 
TCOON,ioos:station:TCOON:518:1,2015-12-20T17:12:00Z,29.5150,-94.5133,22.4,1111122 
TCOON,ioos:station:TCOON:518:1,2015-12-20T18:12:00Z,29.5150,-94.5133,22.5,1111122 
TCOON,ioos:station:TCOON:518:1,2015-12-20T19:12:00Z,29.5150,-94.5133,22.7,1111122 